Time,TemperatureF,DewpointF,PressureIn,WindDirection,WindDirectionDegrees,WindSpeedMPH,WindSpeedGustMPH,Humidity,HourlyPrecipIn,Conditions,Clouds,dailyrainin,SolarRadiationWatts/m^2,SoftwareType,DateUTC
2013-12-07 00:02:00,-12.0,-19.0,-100.00,West,264,7.0,11.0,71,0.00,,,0.00,0.000000,,2013-12-07 06:02:00,
2013-12-07 00:43:00,-14.0,-21.0,-100.00,West,259,5.0,10.0,70,0.00,,,0.00,0.000000,,2013-12-07 06:43:00,
2013-12-07 00:53:00,-14.0,-21.0,-100.00,West,259,5.0,10.0,70,0.00,,,0.00,0.000000,,2013-12-07 06:53:00,
2013-12-07 01:02:00,-14.0,-21.0,-100.00,West,259,5.0,10.0,70,0.00,,,0.00,0.000000,,2013-12-07 07:02:00,
2013-12-07 01:42:00,-15.0,-22.0,-100.00,WSW,256,6.0,9.0,69,0.00,,,0.00,0.000000,,2013-12-07 07:42:00,
2013-12-07 01:53:00,-15.0,-22.0,-100.00,WSW,256,6.0,9.0,69,0.00,,,0.00,0.000000,,2013-12-07 07:53:00,
2013-12-07 02:02:00,-15.0,-22.0,-100.00,WSW,256,6.0,9.0,69,0.00,,,0.00,0.000000,,2013-12-07 08:02:00,
2013-12-07 02:42:00,-16.0,-23.0,-100.00,WSW,251,6.0,11.0,69,0.00,,,0.00,0.000000,,2013-12-07 08:42:00,
2013-12-07 02:52:00,-16.0,-23.0,-100.00,WSW,251,6.0,11.0,69,0.00,,,0.00,0.000000,,2013-12-07 08:52:00,
2013-12-07 03:02:00,-16.0,-23.0,-100.00,WSW,251,6.0,11.0,69,0.00,,,0.00,0.000000,,2013-12-07 09:02:00,
2013-12-07 03:44:00,-17.0,-24.0,-100.00,WSW,250,6.0,10.0,68,0.00,,,0.00,0.000000,,2013-12-07 09:44:00,
2013-12-07 03:53:00,-17.0,-24.0,-100.00,WSW,250,6.0,10.0,68,0.00,,,0.00,0.000000,,2013-12-07 09:53:00,
2013-12-07 04:03:00,-17.0,-24.0,-100.00,WSW,250,6.0,10.0,68,0.00,,,0.00,0.000000,,2013-12-07 10:03:00,
2013-12-07 04:43:00,-17.0,-24.0,-100.00,WSW,247,5.0,8.0,68,0.00,,,0.00,0.000000,,2013-12-07 10:43:00,
2013-12-07 04:53:00,-17.0,-24.0,-100.00,WSW,247,5.0,8.0,68,0.00,,,0.00,0.000000,,2013-12-07 10:53:00,
2013-12-07 05:02:00,-17.0,-24.0,-100.00,WSW,247,5.0,8.0,68,0.00,,,0.00,0.000000,,2013-12-07 11:02:00,
2013-12-07 05:22:00,-17.0,-24.0,-100.00,WSW,244,6.0,9.0,68,0.00,,,0.00,0.000000,,2013-12-07 11:22:00,
2013-12-07 05:33:00,-17.0,-24.0,-100.00,WSW,244,6.0,9.0,68,0.00,,,0.00,0.000000,,2013-12-07 11:33:00,
2013-12-07 05:42:00,-17.0,-24.0,-100.00,WSW,244,6.0,9.0,68,0.00,,,0.00,0.000000,,2013-12-07 11:42:00,
2013-12-07 05:52:00,-17.0,-24.0,-100.00,WSW,244,6.0,9.0,68,0.00,,,0.00,0.000000,,2013-12-07 11:52:00,
2013-12-07 06:02:00,-17.0,-24.0,-100.00,WSW,244,6.0,9.0,68,0.00,,,0.00,0.000000,,2013-12-07 12:02:00,
2013-12-07 06:43:00,-17.0,-24.0,-100.00,SW,235,6.0,9.0,68,0.00,,,0.00,0.000000,,2013-12-07 12:43:00,
2013-12-07 06:52:00,-17.0,-24.0,-100.00,SW,235,6.0,9.0,68,0.00,,,0.00,0.000000,,2013-12-07 12:52:00,
2013-12-07 07:02:00,-17.0,-24.0,-100.00,SW,235,6.0,9.0,68,0.00,,,0.00,0.000000,,2013-12-07 13:02:00,
2013-12-07 07:42:00,-16.0,-23.0,-100.00,SW,235,5.0,9.0,68,0.00,,,0.00,0.000000,,2013-12-07 13:42:00,
2013-12-07 07:52:00,-16.0,-23.0,-100.00,SW,235,5.0,9.0,68,0.00,,,0.00,0.000000,,2013-12-07 13:52:00,
2013-12-07 08:02:00,-16.0,-23.0,-100.00,SW,235,5.0,9.0,68,0.00,,,0.00,0.000000,,2013-12-07 14:02:00,
2013-12-07 08:42:00,-18.0,-26.0,-100.00,SW,236,5.0,8.0,67,0.00,,,0.00,4.000000,,2013-12-07 14:42:00,
2013-12-07 08:52:00,-18.0,-26.0,-100.00,SW,236,5.0,8.0,67,0.00,,,0.00,4.000000,,2013-12-07 14:52:00,
2013-12-07 09:02:00,-18.0,-26.0,-100.00,SW,236,5.0,8.0,67,0.00,,,0.00,4.000000,,2013-12-07 15:02:00,
2013-12-07 09:22:00,-15.0,-24.0,-100.00,SW,233,8.0,12.0,63,0.00,,,0.00,86.000000,,2013-12-07 15:22:00,
2013-12-07 09:34:00,-15.0,-24.0,-100.00,SW,233,8.0,12.0,63,0.00,,,0.00,86.000000,,2013-12-07 15:34:00,
2013-12-07 09:43:00,-15.0,-24.0,-100.00,SW,233,8.0,12.0,63,0.00,,,0.00,86.000000,,2013-12-07 15:43:00,
2013-12-07 09:54:00,-15.0,-24.0,-100.00,SW,233,8.0,12.0,63,0.00,,,0.00,86.000000,,2013-12-07 15:54:00,
2013-12-07 10:03:00,-15.0,-24.0,-100.00,SW,233,8.0,12.0,63,0.00,,,0.00,86.000000,,2013-12-07 16:03:00,
2013-12-07 10:43:00,-12.0,-21.0,-100.00,SW,236,7.0,12.0,62,0.00,,,0.00,229.000000,,2013-12-07 16:43:00,
2013-12-07 10:53:00,-12.0,-21.0,-100.00,SW,236,7.0,12.0,62,0.00,,,0.00,229.000000,,2013-12-07 16:53:00,
2013-12-07 11:02:00,-12.0,-21.0,-100.00,SW,236,7.0,12.0,62,0.00,,,0.00,229.000000,,2013-12-07 17:02:00,
2013-12-07 11:43:00,-8.0,-18.0,-100.00,SW,234,7.0,12.0,61,0.00,,,0.00,318.000000,,2013-12-07 17:43:00,
2013-12-07 11:52:00,-8.0,-18.0,-100.00,SW,234,7.0,12.0,61,0.00,,,0.00,318.000000,,2013-12-07 17:52:00,
2013-12-07 12:02:00,-8.0,-18.0,-100.00,SW,234,7.0,12.0,61,0.00,,,0.00,318.000000,,2013-12-07 18:02:00,
2013-12-07 12:43:00,-5.0,-16.0,-100.00,SW,219,7.0,10.0,58,0.00,,,0.00,370.000000,,2013-12-07 18:43:00,
2013-12-07 12:52:00,-5.0,-16.0,-100.00,SW,219,7.0,10.0,58,0.00,,,0.00,370.000000,,2013-12-07 18:52:00,
2013-12-07 13:02:00,-5.0,-16.0,-100.00,SW,219,7.0,10.0,58,0.00,,,0.00,370.000000,,2013-12-07 19:02:00,
2013-12-07 13:42:00,-2.0,-13.0,-100.00,WSW,244,6.0,12.0,57,0.00,,,0.00,370.000000,,2013-12-07 19:42:00,
2013-12-07 13:52:00,-2.0,-13.0,-100.00,WSW,244,6.0,12.0,57,0.00,,,0.00,370.000000,,2013-12-07 19:52:00,
2013-12-07 14:02:00,-2.0,-13.0,-100.00,WSW,244,6.0,12.0,57,0.00,,,0.00,370.000000,,2013-12-07 20:02:00,
2013-12-07 14:42:00,-2.0,-13.0,-100.00,WSW,238,8.0,13.0,57,0.00,,,0.00,313.000000,,2013-12-07 20:42:00,
2013-12-07 14:53:00,-2.0,-13.0,-100.00,WSW,238,8.0,13.0,57,0.00,,,0.00,313.000000,,2013-12-07 20:53:00,
2013-12-07 15:02:00,-2.0,-13.0,-100.00,WSW,238,8.0,13.0,57,0.00,,,0.00,313.000000,,2013-12-07 21:02:00,
2013-12-07 15:43:00,-3.0,-14.0,-100.00,WSW,244,7.0,15.0,58,0.00,,,0.00,213.000000,,2013-12-07 21:43:00,
2013-12-07 15:53:00,-3.0,-14.0,-100.00,WSW,244,7.0,15.0,58,0.00,,,0.00,213.000000,,2013-12-07 21:53:00,
2013-12-07 16:03:00,-3.0,-14.0,-100.00,WSW,244,7.0,15.0,58,0.00,,,0.00,213.000000,,2013-12-07 22:03:00,
2013-12-07 16:43:00,-8.0,-17.0,-100.00,WSW,242,8.0,16.0,64,0.00,,,0.00,64.000000,,2013-12-07 22:43:00,
2013-12-07 16:53:00,-8.0,-17.0,-100.00,WSW,242,8.0,16.0,64,0.00,,,0.00,64.000000,,2013-12-07 22:53:00,
2013-12-07 17:02:00,-8.0,-17.0,-100.00,WSW,242,8.0,16.0,64,0.00,,,0.00,64.000000,,2013-12-07 23:02:00,
2013-12-07 17:43:00,-11.0,-19.0,-100.00,SW,230,7.0,14.0,67,0.00,,,0.00,3.000000,,2013-12-07 23:43:00,
2013-12-07 17:52:00,-11.0,-19.0,-100.00,SW,230,7.0,14.0,67,0.00,,,0.00,3.000000,,2013-12-07 23:52:00,
2013-12-07 18:02:00,-11.0,-19.0,-100.00,SW,230,7.0,14.0,67,0.00,,,0.00,3.000000,,2013-12-08 00:02:00,
2013-12-07 18:22:00,-12.0,-20.0,-100.00,WSW,239,7.0,11.0,67,0.00,,,0.00,0.000000,,2013-12-08 00:22:00,
2013-12-07 18:32:00,-12.0,-20.0,-100.00,WSW,239,7.0,11.0,67,0.00,,,0.00,0.000000,,2013-12-08 00:32:00,
2013-12-07 18:42:00,-12.0,-20.0,-100.00,WSW,239,7.0,11.0,67,0.00,,,0.00,0.000000,,2013-12-08 00:42:00,
2013-12-07 18:52:00,-12.0,-20.0,-100.00,WSW,239,7.0,11.0,67,0.00,,,0.00,0.000000,,2013-12-08 00:52:00,
2013-12-07 19:02:00,-12.0,-20.0,-100.00,WSW,239,7.0,11.0,67,0.00,,,0.00,0.000000,,2013-12-08 01:02:00,
2013-12-07 19:42:00,-14.0,-21.0,-100.00,WSW,237,6.0,9.0,69,0.00,,,0.00,0.000000,,2013-12-08 01:42:00,
2013-12-07 19:52:00,-14.0,-21.0,-100.00,WSW,237,6.0,9.0,69,0.00,,,0.00,0.000000,,2013-12-08 01:52:00,
2013-12-07 20:02:00,-14.0,-21.0,-100.00,WSW,237,6.0,9.0,69,0.00,,,0.00,0.000000,,2013-12-08 02:02:00,
2013-12-07 20:43:00,-14.0,-21.0,-100.00,SW,235,5.0,9.0,69,0.00,,,0.00,0.000000,,2013-12-08 02:43:00,
2013-12-07 20:52:00,-14.0,-21.0,-100.00,SW,235,5.0,9.0,69,0.00,,,0.00,0.000000,,2013-12-08 02:52:00,
2013-12-07 21:02:00,-14.0,-21.0,-100.00,SW,235,5.0,9.0,69,0.00,,,0.00,0.000000,,2013-12-08 03:02:00,
2013-12-07 21:44:00,-16.0,-23.0,-100.00,SW,217,4.0,6.0,69,0.00,,,0.00,0.000000,,2013-12-08 03:44:00,
2013-12-07 21:54:00,-16.0,-23.0,-100.00,SW,217,4.0,6.0,69,0.00,,,0.00,0.000000,,2013-12-08 03:54:00,
2013-12-07 22:02:00,-999.0,-99.9,-100.00,SW,217,4.0,6.0,-999,0.00,,,0.00,0.000000,,2013-12-08 04:02:00,
2013-12-07 22:43:00,-17.0,-24.0,-100.00,SSW,211,5.0,7.0,68,0.00,,,0.00,0.000000,,2013-12-08 04:43:00,
2013-12-07 22:53:00,-17.0,-24.0,-100.00,SSW,211,5.0,7.0,68,0.00,,,0.00,0.000000,,2013-12-08 04:53:00,
2013-12-07 23:03:00,-17.0,-24.0,-100.00,SSW,211,5.0,7.0,68,0.00,,,0.00,0.000000,,2013-12-08 05:03:00,
2013-12-07 23:43:00,-18.0,-26.0,-100.00,SW,225,4.0,7.0,66,0.00,,,0.00,0.000000,,2013-12-08 05:43:00,
2013-12-07 23:53:00,-18.0,-26.0,-100.00,SW,225,4.0,7.0,66,0.00,,,0.00,0.000000,,2013-12-08 05:53:00,